User: anonymous   Login
Location: Unspecified
(0.0000°N, 0.0000°E)
Time: 18:17:09
(UTC+00:00)
Language:

Cosmos 1354 - Orbit

View from above orbital plane
View from above orbital plane
View from above satellite
View from above satellite

Ground track
Ground track

The orbit data is extracted from the following two-line orbital elements,

1 13148U 82037A   18110.24363846 -.00000002  00000-0  90395-5 0  9998
2 13148  74.0366 141.3841 0010338 308.8915 119.7208 14.31868522878445
Epoch (UTC): 20 April 2018 05:50:50
Eccentricity: 0.0010338
inclination: 74.0366°
perigee height: 778 km
apogee height: 793 km
right ascension of ascending node: 141.3841°
argument of perigee: 308.8915°
revolutions per day: 14.31868522
mean anomaly at epoch: 119.7208°
orbit number at epoch: 87844

The dashed part of the orbit path shows where the satellite is in the earth's shadow,  

DLR